Vancouver, British Columbia

5:21 AM PDT on June 29, 2017 (GMT -0700)
Vancouver International Airport

Weather History for CYVR - March, 2013

Change the Weather History Date:

Saturday, March 23, 2013

  Actual Average Record
Temperature  
Mean Temperature 40 °F -  
Max Temperature 49 °F 54 °F 60 °F (2006)
Min Temperature 32 °F 40 °F 32 °F (2013)
Degree Days  
Heating Degree Days 24    
Moisture  
Dew Point 30 °F    
Average Humidity 66    
Maximum Humidity 87    
Minimum Humidity 40    
Precipitation  
Precipitation 0.00 in 0.11 in - ()
Sea Level Pressure  
Sea Level Pressure 30.38 in    
Wind  
Wind Speed 7 mph ()    
Max Wind Speed 12 mph    
Max Gust Speed -    
Visibility 18.0 miles    
Events      
Averages and records for this station are not official NWS values.
T = Trace of Precipitation, MM = Missing Value Source: Averaged Metar Reports

Daily Weather History Graph

Daily Weather History Graph

Search for Another Location

Airport or City:

Trip Planner

Search our weather history database for the weather conditions in past years. The results will help you decide how hot, cold, wet, or windy it might be!

Date:

Astronomy

Mar. 23, 2013 Rise Set
Actual Time 7:08 AM PDT 7:30 PM PDT
Civil Twilight 6:36 AM PDT 8:02 PM PDT
Nautical Twilight 5:58 AM PDT 8:40 PM PDT
Astronomical Twilight 5:19 AM PDT 9:19 PM PDT
Moon 3:47 PM PDT (3/23) 5:05 AM PDT (3/23)
Length of Visible Light 13h 26m
Length of Day
12h 22m
Waxing Gibbous, 86% of the Moon is Illuminated
Mar 23
Waxing Gibbous
Mar 27
Full
Apr 2
Last Quarter
Apr 10
New
Apr 18
First Quarter

Hourly Weather History & Observations

Time (PDT) Temp. Windchill Dew Point Humidity Pressure Visibility Wind Dir Wind Speed Gust Speed Precip Events Conditions
12:00 AM 35.6 °F 29.9 °F 30.2 °F 81% 30.39 in 30.0 mi East 6.9 mph - N/A   Scattered Clouds
1:00 AM 33.8 °F 27.7 °F 30.2 °F 87% 30.39 in 30.0 mi East 6.9 mph - N/A   Mostly Cloudy
2:00 AM 33.8 °F 28.6 °F 30.2 °F 87% 30.40 in 30.0 mi East 5.8 mph - N/A   Mostly Cloudy
3:00 AM 35.6 °F 29.2 °F 32.0 °F 87% 30.40 in 30.0 mi East 8.1 mph - N/A   Overcast
4:00 AM 35.6 °F 29.2 °F 32.0 °F 87% 30.40 in 30.0 mi East 8.1 mph - N/A   Overcast
5:00 AM 35 °F - 31 °F 82% 30.40 in 15 mi East 8.1 mph - -   Overcast
5:00 AM 35.6 °F 29.2 °F 32.0 °F 87% 30.40 in 15.0 mi East 8.1 mph - N/A   Overcast
6:00 AM 35.6 °F 29.2 °F 32.0 °F 87% 30.41 in 15.0 mi East 8.1 mph - N/A   Overcast
7:00 AM 35.6 °F 30.7 °F 32.0 °F 87% 30.41 in 15.0 mi East 5.8 mph - N/A   Overcast
8:00 AM 35.6 °F 29.9 °F 32.0 °F 87% 30.41 in 15.0 mi East 6.9 mph - N/A   Mostly Cloudy
9:00 AM 39.2 °F 33.0 °F 32.0 °F 75% 30.41 in 15.0 mi ESE 9.2 mph - N/A   Mostly Cloudy
10:00 AM 41.0 °F 35.2 °F 32.0 °F 70% 30.41 in 15.0 mi ESE 9.2 mph - N/A   Scattered Clouds
11:00 AM 44 °F - 29 °F 43% 30.41 in 15 mi ESE 9.2 mph - -   Scattered Clouds
11:00 AM 42.8 °F 38.0 °F 28.4 °F 57% 30.41 in 15.0 mi ESE 8.1 mph - N/A   Scattered Clouds
12:00 PM 44.6 °F 40.7 °F 30.2 °F 57% 30.40 in 20.0 mi SSE 6.9 mph - N/A   Scattered Clouds
1:00 PM 46.4 °F 42.4 °F 28.4 °F 50% 30.38 in 20.0 mi SSE 8.1 mph - N/A   Scattered Clouds
2:00 PM 48.2 °F - 28.4 °F 46% 30.38 in 20.0 mi SSW 5.8 mph - N/A   Partly Cloudy
3:00 PM 46.4 °F 41.1 °F 28.4 °F 50% 30.37 in 20.0 mi SW 11.5 mph - N/A   Partly Cloudy
4:00 PM 48.2 °F - 28.4 °F 46% 30.36 in 20.0 mi SSW 8.1 mph - N/A   Partly Cloudy
5:00 PM 47 °F - 30 °F 40% 30.35 in 19 mi SW 11.5 mph - -   Scattered Clouds
5:00 PM 48.2 °F - 30.2 °F 50% 30.35 in 20.0 mi SSW 11.5 mph - N/A   Partly Cloudy
6:00 PM 46.4 °F 42.4 °F 26.6 °F 46% 30.34 in 20.0 mi SW 8.1 mph - N/A   Partly Cloudy
7:00 PM 44.6 °F 41.4 °F 26.6 °F 49% 30.34 in 20.0 mi SSW 5.8 mph - N/A   Scattered Clouds
8:00 PM 42.8 °F - 28.4 °F 57% 30.33 in 20.0 mi South 2.3 mph - N/A   Mostly Cloudy
9:00 PM 42.8 °F 41.1 °F 30.2 °F 61% 30.33 in 20.0 mi NNE 3.5 mph - N/A   Mostly Cloudy
10:00 PM 42.8 °F - 30.2 °F 61% 30.33 in 20.0 mi NNE 2.3 mph - N/A   Mostly Cloudy
11:00 PM 40 °F - 30 °F 58% 30.34 in 19 mi East 4.6 mph - -   Mostly Cloudy
11:00 PM 39.2 °F 35.9 °F 30.2 °F 70% 30.34 in 20.0 mi East 4.6 mph - N/A   Mostly Cloudy